Back to catalog

ATLAS 5 CENTAUR DEB

AliveHEO
NORAD 46638·DEBRIS·🇺🇸 United States

Launched Sep 17, 2014 from Cape Canaveral Space Force Station

Loading…

Next Passes (next 24 hours)

TLE

FreshSource: Space-Track

Epoch: Sep 13, 2026, 12:06 UTC

1 46638U 14055CN  26256.50430256 -.00000108  00000-0  00000+0 0  9997
2 46638  21.1887  85.2163 5180017 275.5947  30.0512  1.92352095 41712

Track ATLAS 5 CENTAUR DEB in real time with AllMySat

Download on the App Store